This is the latest recevied weather packets stored in our database for station/object HK6LRQ-25. If no packets are shown the sender has not sent any weather packets the latest 10 day(s).
| Time | Temp. | Humidity | Pressure | Rain* | Wind** | Luminosity | Snow |
|---|---|---|---|---|---|---|---|
| 1787474879 | 15.56° C | 82% | 1015 hPa | 0 mm | - | - | - |
| 1787473078 | 15.56° C | 82% | 1015 hPa | 0 mm | - | - | - |
| 1787471277 | 15.56° C | 82% | 1015 hPa | 0 mm | - | - | - |
| 1787469476 | 15.56° C | 81% | 1015 hPa | 0 mm | - | - | - |
| 1787467675 | 16.11° C | 81% | 1015 hPa | 0 mm | - | - | - |
| 1787465874 | 16.11° C | 80% | 1016 hPa | 0 mm | - | - | - |
| 1787464073 | 16.11° C | 81% | 1016 hPa | 0 mm | - | - | - |
| 1787462272 | 16.67° C | 79% | 1016 hPa | 0 mm | - | - | - |
| 1787460471 | 16.67° C | 80% | 1016 hPa | 0 mm | - | - | - |
| 1787458670 | 16.67° C | 78% | 1017 hPa | 0 mm | - | - | - |
| 1787456869 | 16.67° C | 80% | 1017 hPa | 0 mm | - | - | - |
| 1787455068 | 16.67° C | 77% | 1017 hPa | 0 mm | - | - | - |
| 1787453267 | 16.67° C | 80% | 1016 hPa | 0 mm | - | - | - |
| 1787451466 | 16.67° C | 77% | 1016 hPa | 0.25 mm | - | - | - |
| 1787449665 | 14.44° C | 79% | 1016 hPa | 0.25 mm | - | - | - |
| 1787447864 | 17.78° C | 79% | 1015 hPa | 0 mm | - | - | - |
| 1787446063 | 17.78° C | 83% | 1015 hPa | 0 mm | - | - | - |
| 1787444262 | 18.33° C | 79% | 1014 hPa | 0 mm | - | - | - |
| 1787442461 | 18.33° C | 82% | 1014 hPa | 0 mm | - | - | - |
| 1787440660 | 18.33° C | 78% | 1013 hPa | 0.25 mm | - | - | - |
| 1787438859 | 18.89° C | 82% | 1012 hPa | 0.25 mm | - | - | - |
| 1787437057 | 18.89° C | 79% | 1011 hPa | 0 mm | - | - | - |
| 1787435257 | 19.44° C | 81% | 1011 hPa | 0 mm | - | - | - |
| 1787433455 | 16.67° C | 78% | 1011 hPa | 0.25 mm | - | - | - |
| 1787431654 | 20° C | 78% | 1011 hPa | 0.25 mm | - | - | - |
* Rain latest hour (hover to see other rain measurements)
** Current wind speed in m/s (hover to see current wind gust speed)